Home > Weather > Hoofddorp > Past weeks

Flag for Netherlands Past Weather in Hoofddorp, Netherlands — Yesterday and Last 2 Weeks

Now
73 °F

Sunny.


Feels Like: 76 °F
Forecast: 63 / 82 °F
Wind: 8 mph from North

Location: Amsterdam Schiphol Airport

Current Time: Aug 26, 2016 at 3:54:06 PM

Latest Report: Aug 26, 2016 at 2:55 PM


Visibility: 10 mi

Pressure: 30.07 "Hg

Humidity: 65%

Dew Point: 61 °F

Location of HoofddorpLocation

Past Weather in Hoofddorp — Graph

°F

Hoofddorp Temperature Yesterday

Maximum temperature yesterday: 88 °F (at 3:55 PM)
Minimum temperature yesterday: 63 °F (at 7:25 AM)
Average temperature yesterday: 76 °F

High & Low Weather Summary for the Past Weeks

 TemperatureHumidityPressure
High88 °F (Aug 25, 3:55 PM)100% (Aug 11, 10:55 PM)30.30 "Hg (Aug 11, 10:55 PM)
Low52 °F (Aug 15, 2:25 AM)42% (Aug 23, 5:55 PM)29.74 "Hg (Aug 19, 3:55 PM)
Average66 °F78%30.05 "Hg
* Reported Aug 11 2:25 PM — Aug 26 2:25 PM, Hoofddorp, Weather by CustomWeather, © 2016

Note: Actual official high and low records may vary slightly from our data, if they occured in-between our weather recording intervals... More about our weather records

Advertising

Hoofddorp Weather History for the Previous 24 Hours

Scroll right to see more
 ConditionsComfort  
Time TempWeatherWind HumidityBarometerVisibility
2:25 PM
Fri, Aug 26
73 °FSunny.9 mph69%30.07 "Hg10 mi
1:55 PM72 °FSunny.9 mph69%30.07 "Hg10 mi
1:25 PM73 °FSunny.9 mph65%30.04 "Hg10 mi
12:55 PM73 °FSunny.8 mph65%30.04 "Hg10 mi
12:25 PM72 °FSunny.9 mph78%30.04 "Hg10 mi
11:55 AM73 °FPassing clouds.8 mph74%30.01 "HgN/A
11:25 AM73 °FPassing clouds.10 mph74%30.01 "HgN/A
10:55 AM73 °FSunny.8 mph74%30.01 "Hg10 mi
10:25 AM72 °FSunny.5 mph83%29.98 "Hg10 mi
9:55 AM72 °FSunny.6 mph78%29.98 "Hg10 mi
9:25 AM70 °FPassing clouds.15 mph83%29.98 "HgN/A
8:55 AM70 °FPassing clouds.15 mph88%29.98 "Hg5 mi
8:25 AM70 °FPassing clouds.13 mph83%29.95 "Hg4 mi
7:55 AM68 °FFog.3 mph88%29.95 "Hg2 mi
7:25 AM66 °FFog.2 mph94%29.92 "Hg2 mi
6:55 AM66 °FFog.8 mph94%29.95 "Hg3 mi
6:25 AM66 °FFog.8 mph88%29.92 "Hg3 mi
5:55 AM66 °FFog.5 mph88%29.92 "Hg3 mi
5:25 AM68 °FFog.9 mph88%29.92 "Hg3 mi
4:55 AM70 °FClear.8 mph88%29.92 "Hg4 mi
4:25 AM70 °FClear.3 mph88%29.89 "Hg5 mi
3:55 AM70 °FClear.6 mph88%29.89 "Hg10 mi
3:25 AM70 °FPassing clouds.3 mph88%29.89 "HgN/A
2:55 AM72 °FClear.6 mph83%29.89 "Hg10 mi
2:25 AM72 °FClear.6 mph83%29.89 "Hg10 mi
1:55 AM73 °FPassing clouds.3 mph83%29.89 "HgN/A
1:25 AM73 °FPassing clouds.3 mph83%29.89 "HgN/A
12:55 AM73 °FClear.8 mph83%29.89 "Hg10 mi
12:25 AM75 °FClear.8 mph78%29.89 "Hg10 mi
11:55 PM
Thu, Aug 25
75 °FClear.8 mph78%29.89 "Hg10 mi
11:25 PM75 °FClear.7 mph78%29.89 "Hg10 mi
10:55 PM73 °FClear.3 mph83%29.92 "Hg10 mi
10:25 PM75 °FClear.3 mph78%29.92 "Hg10 mi
9:55 PM73 °FClear.5 mph83%29.92 "Hg10 mi
9:25 PM75 °FSunny.2 mph83%29.92 "Hg10 mi
8:55 PM77 °FSunny.5 mph79%29.92 "Hg10 mi
8:25 PM81 °FSunny.5 mph66%29.92 "Hg10 mi
7:55 PM82 °FSunny.7 mph66%29.92 "Hg10 mi
7:25 PM84 °FSunny.6 mph62%29.92 "Hg10 mi
6:55 PM86 °FSunny.7 mph55%29.92 "Hg10 mi
6:25 PM86 °FPassing clouds.7 mph55%29.92 "HgN/A
5:55 PM88 °FPassing clouds.8 mph49%29.92 "HgN/A
5:25 PM88 °FPassing clouds.8 mph52%29.92 "HgN/A
4:55 PM88 °FPassing clouds.8 mph52%29.95 "HgN/A
4:25 PM88 °FPassing clouds.9 mph52%29.95 "HgN/A
3:55 PM88 °FPassing clouds.9 mph52%29.95 "HgN/A
3:25 PM86 °FPassing clouds.8 mph55%29.95 "HgN/A
Weather by CustomWeather, © 2016

See weather overviewHow to use our weather pages